• In Czech Republic
  • List of Countries
  • For 7 days
  • Water Temperature
  • Satellite Maps
  • Weather Map
  • Weather Widgets
  • user-avatar
    Login

    Hourly Weather Blagoevgrad

    Today, 25 September, Tuesday

    Time Temperature Precipitation Wind Pressure Humidity
    00:00 +12°C° 0 mm 4 mps 725 mmHg 71%
    01:00 +11°C° 0 mm 4 mps 725 mmHg 72%
    02:00 +10°C° 0 mm 4 mps 725 mmHg 74%
    03:00 +8°C° 0 mm 4 mps 726 mmHg 75%
    04:00 +8°C° 0 mm 4 mps 726 mmHg 75%
    05:00 +8°C° 0 mm 3 mps 727 mmHg 76%
    06:00 +9°C° 0 mm 3 mps 727 mmHg 71%
    07:00 +9°C° 0 mm 3 mps 727 mmHg 66%
    08:00 +10°C° 0 mm 4 mps 728 mmHg 61%
    09:00 +12°C° 0 mm 4 mps 728 mmHg 50%
    10:00 +14°C° 0 mm 4 mps 728 mmHg 39%
    11:00 +17°C° 0 mm 4 mps 728 mmHg 28%
    12:00 +17°C° 0 mm 4 mps 728 mmHg 26%
    13:00 +17°C° 0 mm 5 mps 728 mmHg 25%
    14:00 +19°C° 0 mm 5 mps 728 mmHg 23%
    15:00 +17°C° 0 mm 5 mps 728 mmHg 25%
    16:00 +18°C° 0 mm 4 mps 728 mmHg 27%
    17:00 +17°C° 0 mm 4 mps 727 mmHg 28%
    18:00 +14°C° 0 mm 4 mps 728 mmHg 35%
    19:00 +11°C° 0 mm 3 mps 729 mmHg 41%
    20:00 +9°C° 0 mm 3 mps 729 mmHg 48%
    21:00 +8°C° 0 mm 2 mps 729 mmHg 50%
    22:00 +7°C° 0 mm 2 mps 730 mmHg 53%
    23:00 +6°C° 0 mm 2 mps 730 mmHg 56%

    Tomorrow, 26 September, Wednesday

    Time Temperature Precipitation Wind Pressure Humidity
    00:00 +6°C° 0 mm 2 mps 731 mmHg 58%
    01:00 +5°C° 0 mm 2 mps 731 mmHg 60%
    02:00 +5°C° 0 mm 2 mps 731 mmHg 62%
    03:00 +5°C° 0 mm 2 mps 731 mmHg 63%
    04:00 +4°C° 0 mm 2 mps 731 mmHg 64%
    05:00 +4°C° 0 mm 2 mps 731 mmHg 66%
    06:00 +5°C° 0 mm 2 mps 731 mmHg 60%
    07:00 +7°C° 0 mm 2 mps 732 mmHg 55%
    08:00 +8°C° 0 mm 2 mps 732 mmHg 49%
    09:00 +10°C° 0 mm 3 mps 732 mmHg 43%
    10:00 +12°C° 0 mm 3 mps 732 mmHg 37%
    11:00 +14°C° 0 mm 3 mps 732 mmHg 31%
    12:00 +15°C° 0 mm 4 mps 732 mmHg 29%
    13:00 +15°C° 0 mm 4 mps 731 mmHg 28%
    14:00 +17°C° 0 mm 4 mps 731 mmHg 26%
    15:00 +15°C° 0 mm 4 mps 731 mmHg 28%
    16:00 +14°C° 0 mm 4 mps 730 mmHg 31%
    17:00 +14°C° 0 mm 4 mps 730 mmHg 33%
    18:00 +12°C° 0 mm 4 mps 730 mmHg 41%
    19:00 +9°C° 0 mm 3 mps 731 mmHg 49%
    20:00 +7°C° 0 mm 2 mps 731 mmHg 56%
    21:00 +6°C° 0 mm 2 mps 731 mmHg 60%
    22:00 +6°C° 0 mm 2 mps 732 mmHg 63%
    23:00 +5°C° 0 mm 2 mps 732 mmHg 67%

    Day after tomorrow, 27 September, Thursday

    Time Temperature Precipitation Wind Pressure Humidity
    00:00 +5°C° 0 mm 2 mps 732 mmHg 67%
    01:00 +4°C° 0 mm 2 mps 732 mmHg 67%
    02:00 +4°C° 0 mm 2 mps 732 mmHg 67%
    03:00 +4°C° 0 mm 2 mps 731 mmHg 67%
    04:00 +4°C° 0 mm 2 mps 731 mmHg 66%
    05:00 +4°C° 0 mm 2 mps 731 mmHg 66%
    06:00 +5°C° 0 mm 2 mps 731 mmHg 59%
    07:00 +7°C° 0 mm 3 mps 731 mmHg 52%
    08:00 +8°C° 0 mm 3 mps 731 mmHg 45%
    09:00 +11°C° 0 mm 3 mps 731 mmHg 38%
    10:00 +13°C° 0 mm 3 mps 731 mmHg 30%
    11:00 +17°C° 0 mm 4 mps 730 mmHg 23%
    12:00 +18°C° 0 mm 4 mps 730 mmHg 21%
    13:00 +19°C° 0 mm 4 mps 729 mmHg 19%
    14:00 +20°C° 0 mm 4 mps 729 mmHg 17%
    15:00 +19°C° 0 mm 4 mps 728 mmHg 19%
    16:00 +18°C° 0 mm 4 mps 728 mmHg 20%
    17:00 +18°C° 0 mm 4 mps 727 mmHg 22%
    18:00 +14°C° 0 mm 3 mps 727 mmHg 28%
    19:00 +11°C° 0 mm 3 mps 727 mmHg 34%
    20:00 +8°C° 0 mm 2 mps 727 mmHg 40%
    21:00 +8°C° 0 mm 2 mps 727 mmHg 41%
    22:00 +7°C° 0 mm 2 mps 727 mmHg 42%
    23:00 +7°C° 0 mm 2 mps 727 mmHg 43%

    28 September, Friday

    Time Temperature Precipitation Wind Pressure Humidity
    00:00 +7°C° 0 mm 2 mps 727 mmHg 42%
    01:00 +7°C° 0 mm 2 mps 727 mmHg 41%
    02:00 +7°C° 0 mm 2 mps 727 mmHg 40%
    03:00 +7°C° 0 mm 2 mps 726 mmHg 40%
    04:00 +7°C° 0 mm 2 mps 726 mmHg 39%
    05:00 +7°C° 0 mm 2 mps 726 mmHg 39%
    06:00 +8°C° 0 mm 2 mps 726 mmHg 36%
    07:00 +10°C° 0 mm 2 mps 726 mmHg 33%
    08:00 +13°C° 0 mm 2 mps 726 mmHg 30%
    09:00 +15°C° 0 mm 2 mps 726 mmHg 27%
    10:00 +18°C° 0 mm 2 mps 725 mmHg 25%
    11:00 +20°C° 0 mm 2 mps 725 mmHg 22%
    12:00 +21°C° 0 mm 2 mps 725 mmHg 23%
    13:00 +23°C° 0 mm 2 mps 724 mmHg 24%
    14:00 +24°C° 0 mm 2 mps 723 mmHg 25%
    15:00 +24°C° 0 mm 2 mps 723 mmHg 28%
    16:00 +23°C° 0 mm 2 mps 723 mmHg 30%
    17:00 +21°C° 0 mm 2 mps 722 mmHg 32%
    18:00 +20°C° 0 mm 1 mps 722 mmHg 38%
    19:00 +16°C° 0 mm 1 mps 722 mmHg 44%
    20:00 +14°C° 0 mm 1 mps 721 mmHg 50%
    21:00 +14°C° 0 mm 1 mps 721 mmHg 51%
    22:00 +13°C° 0 mm 1 mps 721 mmHg 52%
    23:00 +13°C° 0 mm 1 mps 721 mmHg 53%

    29 September, Saturday

    Time Temperature Precipitation Wind Pressure Humidity
    00:00 +13°C° 0.1 mm 1 mps 721 mmHg 55%
    01:00 +13°C° 0.1 mm 1 mps 721 mmHg 58%
    02:00 +13°C° 0.1 mm 1 mps 721 mmHg 60%
    03:00 +13°C° 0.3 mm 1 mps 720 mmHg 63%
    04:00 +13°C° 0.3 mm 1 mps 720 mmHg 66%
    05:00 +13°C° 0.3 mm 1 mps 720 mmHg 69%
    06:00 +14°C° 0.1 mm 1 mps 720 mmHg 67%
    07:00 +14°C° 0.1 mm 1 mps 720 mmHg 66%
    08:00 +15°C° 0.1 mm 1 mps 720 mmHg 65%
    09:00 +16°C° 0.2 mm 2 mps 720 mmHg 62%
    10:00 +18°C° 0.2 mm 2 mps 720 mmHg 60%
    11:00 +19°C° 0.2 mm 2 mps 720 mmHg 57%
    12:00 +19°C° 0.2 mm 2 mps 719 mmHg 57%
    13:00 +19°C° 0.2 mm 2 mps 719 mmHg 57%
    14:00 +19°C° 0.2 mm 3 mps 719 mmHg 57%
    15:00 +19°C° 0.2 mm 3 mps 719 mmHg 59%
    16:00 +18°C° 0.2 mm 3 mps 719 mmHg 60%
    17:00 +17°C° 0.2 mm 3 mps 719 mmHg 62%
    18:00 +16°C° 0.1 mm 2 mps 719 mmHg 67%
    19:00 +15°C° 0.1 mm 2 mps 719 mmHg 71%
    20:00 +13°C° 0.1 mm 2 mps 720 mmHg 75%
    21:00 +13°C° 0.1 mm 2 mps 720 mmHg 76%
    22:00 +12°C° 0.1 mm 2 mps 720 mmHg 77%
    23:00 +12°C° 0.1 mm 2 mps 720 mmHg 77%

    30 September, Sunday

    Time Temperature Precipitation Wind Pressure Humidity
    00:00 +12°C° 0.1 mm 2 mps 720 mmHg 77%
    01:00 +10°C° 0.1 mm 2 mps 720 mmHg 78%
    02:00 +10°C° 0.1 mm 2 mps 720 mmHg 78%
    03:00 +10°C° 0.2 mm 2 mps 720 mmHg 78%
    04:00 +10°C° 0.2 mm 2 mps 720 mmHg 79%
    05:00 +10°C° 0.2 mm 2 mps 720 mmHg 80%
    06:00 +12°C° 0.2 mm 2 mps 721 mmHg 77%
    07:00 +12°C° 0.2 mm 2 mps 721 mmHg 75%
    08:00 +13°C° 0.2 mm 2 mps 721 mmHg 72%
    09:00 +14°C° 0.3 mm 2 mps 721 mmHg 70%
    10:00 +15°C° 0.3 mm 2 mps 722 mmHg 67%
    11:00 +16°C° 0.3 mm 2 mps 722 mmHg 65%
    12:00 +17°C° 0.4 mm 2 mps 722 mmHg 64%
    13:00 +17°C° 0.4 mm 2 mps 721 mmHg 63%
    14:00 +18°C° 0.4 mm 2 mps 721 mmHg 62%
    15:00 +17°C° 0.2 mm 2 mps 721 mmHg 63%
    16:00 +17°C° 0.2 mm 2 mps 721 mmHg 65%
    17:00 +17°C° 0.2 mm 2 mps 721 mmHg 66%
    18:00 +15°C° 0 mm 1 mps 721 mmHg 72%
    19:00 +14°C° 0 mm 1 mps 721 mmHg 79%
    20:00 +12°C° 0 mm 1 mps 721 mmHg 85%
    21:00 +12°C° 0 mm 1 mps 721 mmHg 86%
    22:00 +12°C° 0 mm 1 mps 721 mmHg 88%
    23:00 +11°C° 0 mm 1 mps 721 mmHg 89%
    Show more